Location: Appeville
(49.3218°N, 1.3427°W)
Time: 05:29:44
(UTC+00:00)

N. Korean satellite - Visible Passes

Search period start: 28 February 2020 00:00
Search period end: 09 March 2020 00:00
Orbit: 456 x 505 km, 97.2° (Epoch: 27 February)

Date Brightness Start Highest point End Pass type
(mag) Time Alt. Az. Time Alt. Az. Time Alt. Az.
28 Feb 9.0 05:16:33 10° NE 05:19:44 26° E 05:22:52 10° SSE visible
29 Feb 9.9 04:51:50 10° NE 04:53:57 15° E 04:56:04 10° SE visible
01 Mar 6.8 05:58:24 10° NNE 06:02:08 81° ESE 06:05:48 10° S visible
02 Mar 8.2 05:33:00 10° NNE 05:36:31 40° E 05:39:59 10° S visible
03 Mar 9.4 05:07:55 10° NE 05:10:49 21° E 05:13:40 10° SE visible
04 Mar 10.1 04:43:39 10° ENE 04:45:01 12° E 04:46:21 10° ESE visible
05 Mar 7.2 05:49:35 10° NNE 05:53:16 64° E 05:56:52 10° S visible
06 Mar 8.6 05:24:16 10° NNE 05:27:37 32° E 05:30:54 10° SSE visible
07 Mar 9.8 04:59:21 10° NE 05:01:52 17° E 05:04:20 10° SE visible
